User: anonymous   Login
Location: Churchill
(58.7670°N, 94.1670°W)
Time: 08:52:26
(UTC-05:00)
Language:

Cosmos 2142 Rocket - Orbit

View from above orbital plane
View from above orbital plane
View from above satellite
View from above satellite

Ground track
Ground track

The orbit data is extracted from the following two-line orbital elements,

1 21231U 91029B   15212.17200565  .00000056  00000-0  42259-4 0  9994
2 21231 082.9505 257.5368 0034921 351.5913 060.9420 13.75682085219325
Epoch (UTC): 31 July 2015 04:07:41
Eccentricity: 0.0034921
inclination: 82.9505°
perigee height: 953 km
apogee height: 1005 km
right ascension of ascending node: 257.5368°
argument of perigee: 351.5913°
revolutions per day: 13.75682085
mean anomaly at epoch: 60.9420°
orbit number at epoch: 21932

The dashed part of the orbit path shows where the satellite is in the earth's shadow,  

DLR